Date String (YYYY-MM-DD hh:mm:ss) UTC,Instrument flags,absolute air pressure of the measurement (hPa),sample flow rate (lpm),inlet stack bypass flow (lpm),air temperature of the measurement (°C),ambient temperature measured by the external sensor (°C),aerosol sample conditioner tube jacket temperature (°C),OPC LED temperature (°C),internal box temperature (°C),relative humidity of the measurement (%),span deviation,mass concentration of particles derived from Lorenz-Mie calculation of OPC scattering (μg/m³),mass concentration of particles derived from Lorenz-Mie calculation of OPC scattering (μg/m³),mass concentration of particles derived from Lorenz-Mie calculation of OPC scattering (μg/m³)
DateTimeUTC,F1_M11,P_M11,Q1_M11,Q2_M11,T1_M11,T2_M11,T3_M11,T4_M11,T5_M11,U1_M11,ZSPAN_M11,X0_M11,X2_M11,X1_M11
2023-08-13 10:00:00,SystemResetWarning,0830.9,5.00,000.00,029.4,028.0,000.0,037.9,031.1,21.1,0000.0,0008.77,0003.09,0002.29
2023-08-13 10:01:00,SystemResetWarning,0831.0,5.00,000.00,029.5,028.2,000.0,037.9,031.2,21.0,0000.0,0008.75,0003.08,0002.29
2023-08-13 10:02:00,SystemResetWarning,0831.0,5.00,000.00,029.5,028.3,000.0,038.0,031.2,21.0,0000.0,0008.65,0003.04,0002.28
2023-08-13 10:03:00,SystemResetWarning,0831.0,5.00,000.00,029.5,028.4,000.0,038.0,031.2,20.8,0000.0,0008.43,0003.02,0002.26
2023-08-13 10:04:00,SystemResetWarning,0831.0,4.99,000.00,029.6,028.4,000.0,038.0,031.3,20.7,0000.0,0008.52,0003.06,0002.28
2023-08-13 10:05:00,SystemResetWarning,0831.0,4.99,000.00,029.6,027.3,000.0,037.9,031.1,20.7,0000.0,0008.26,0003.11,0002.28
2023-08-13 10:06:00,SystemResetWarning,0830.9,5.00,000.00,029.5,025.9,000.0,037.8,030.8,20.8,0000.0,0007.02,0003.05,0002.27
2023-08-13 10:07:00,SystemResetWarning,0830.9,5.00,000.00,029.4,025.8,000.0,037.7,030.7,20.9,0000.0,0005.64,0003.03,0002.26
2023-08-13 10:08:00,SystemResetWarning,0830.9,5.01,000.00,029.3,026.0,000.0,037.8,030.6,21.0,0000.0,0005.82,0003.05,0002.26
2023-08-13 10:09:00,SystemResetWarning,0831.0,5.01,000.00,029.3,026.3,000.0,037.8,030.7,21.1,0000.0,0006.40,0003.09,0002.26
2023-08-13 10:10:00,SystemResetWarning,0831.1,5.00,000.00,029.3,026.7,000.0,037.8,030.8,21.3,0000.0,0006.24,0003.04,0002.25
2023-08-13 10:11:00,SystemResetWarning,0831.2,5.00,000.00,029.3,027.0,000.0,037.9,030.9,22.2,0000.0,0005.52,0002.98,0002.25
2023-08-13 10:12:00,SystemResetWarning,0831.1,5.00,000.00,029.3,027.3,000.0,037.9,030.9,22.7,0000.0,0005.90,0002.99,0002.25
2023-08-13 10:13:00,SystemResetWarning,0831.2,5.00,000.00,029.3,027.5,000.0,037.9,031.0,22.8,0000.0,0006.88,0002.99,0002.24
2023-08-13 10:14:00,SystemResetWarning,0831.2,4.99,000.00,029.4,027.7,000.0,037.9,031.0,23.0,0000.0,0006.71,0002.96,0002.25
2023-08-13 10:15:00,SystemResetWarning,0831.2,5.00,000.00,029.4,027.9,000.0,037.9,031.1,23.0,0000.0,0006.79,0002.97,0002.24
2023-08-13 10:16:00,SystemResetWarning,0831.2,5.00,000.00,029.4,028.0,000.0,037.9,031.1,22.9,0000.0,0006.66,0002.92,0002.24
2023-08-13 10:17:00,SystemResetWarning,0831.2,5.01,000.00,029.5,028.2,000.0,037.9,031.1,22.9,0000.0,0006.65,0002.92,0002.25
2023-08-13 10:18:00,SystemResetWarning,0831.2,5.00,000.00,029.5,028.3,000.0,038.0,031.2,22.8,0000.0,0006.73,0002.94,0002.26
2023-08-13 10:19:00,SystemResetWarning,0831.2,5.01,000.00,029.5,028.4,000.0,038.0,031.2,22.7,0000.0,0006.67,0002.96,0002.27
2023-08-13 10:20:00,SystemResetWarning,0831.2,5.01,000.00,029.6,028.4,000.0,038.0,031.3,22.3,0000.0,0007.35,0002.95,0002.27
2023-08-13 10:21:00,SystemResetWarning,0831.2,5.00,000.00,029.6,028.2,000.0,038.0,031.3,21.9,0000.0,0007.74,0002.97,0002.28
2023-08-13 10:22:00,SystemResetWarning,0831.2,4.99,000.00,029.6,026.3,000.0,037.9,031.0,22.1,0000.0,0007.81,0003.01,0002.30
2023-08-13 10:23:00,SystemResetWarning,0831.2,5.02,000.00,029.5,025.6,000.0,037.8,030.8,22.6,0000.0,0007.66,0003.02,0002.31
2023-08-13 10:24:00,SystemResetWarning,0831.2,5.00,000.00,029.4,025.7,000.0,037.8,030.6,22.5,0000.0,0006.85,0003.05,0002.33
2023-08-13 10:25:00,SystemResetWarning,0831.2,5.00,000.00,029.3,026.0,000.0,037.8,030.6,22.3,0000.0,0007.19,0003.09,0002.35
2023-08-13 10:26:00,SystemResetWarning,0831.2,5.00,000.00,029.3,026.4,000.0,037.8,030.7,22.4,0000.0,0007.12,0003.10,0002.36
2023-08-13 10:27:00,SystemResetWarning,0831.3,5.00,000.00,029.3,026.7,000.0,037.9,030.8,22.4,0000.0,0007.03,0003.10,0002.35
2023-08-13 10:28:00,SystemResetWarning,0831.2,5.00,000.00,029.3,027.0,000.0,037.9,030.9,22.6,0000.0,0007.18,0003.12,0002.35
2023-08-13 10:29:00,SystemResetWarning,0831.2,5.00,000.00,029.3,027.3,000.0,037.9,030.9,22.5,0000.0,0007.17,0003.11,0002.36
2023-08-13 10:30:00,SystemResetWarning,0831.3,5.00,000.00,029.3,027.6,000.0,037.9,031.0,22.3,0000.0,0007.09,0003.10,0002.37
2023-08-13 10:31:00,SystemResetWarning,0831.3,5.00,000.00,029.4,027.8,000.0,037.9,031.0,22.1,0000.0,0006.05,0003.11,0002.38
2023-08-13 10:32:00,SystemResetWarning,0831.3,5.00,000.00,029.4,027.9,000.0,037.9,031.1,21.9,0000.0,0004.98,0003.06,0002.37
2023-08-13 10:33:00,SystemResetWarning,0831.3,5.00,000.00,029.4,028.1,000.0,037.9,031.1,22.0,0000.0,0004.95,0003.09,0002.36
2023-08-13 10:34:00,SystemResetWarning,0831.4,5.01,000.00,029.5,028.2,000.0,038.0,031.2,22.0,0000.0,0004.88,0003.07,0002.36
2023-08-13 10:35:00,SystemResetWarning,0831.4,5.00,000.00,029.5,028.3,000.0,038.0,031.2,22.2,0000.0,0004.84,0003.05,0002.36
2023-08-13 10:36:00,SystemResetWarning,0831.4,5.00,000.00,029.5,028.4,000.0,038.0,031.2,22.3,0000.0,0004.47,0003.02,0002.36
2023-08-13 10:37:00,SystemResetWarning,0831.4,4.99,000.00,029.6,028.5,000.0,038.0,031.3,22.4,0000.0,0004.66,0003.02,0002.38
2023-08-13 10:38:00,SystemResetWarning,0831.5,5.00,000.00,029.6,028.5,000.0,038.1,031.3,22.3,0000.0,0004.98,0003.06,0002.43
2023-08-13 10:39:00,SystemResetWarning,0831.4,4.99,000.00,029.6,028.4,000.0,038.1,031.3,22.2,0000.0,0005.11,0003.11,0002.47
2023-08-13 10:40:00,SystemResetWarning,0831.4,5.00,000.00,029.6,026.6,000.0,037.9,031.0,22.2,0000.0,0005.33,0003.17,0002.51
2023-08-13 10:41:00,SystemResetWarning,0831.5,5.01,000.00,029.5,025.5,000.0,037.8,030.7,22.3,0000.0,0005.54,0003.20,0002.55
2023-08-13 10:42:00,SystemResetWarning,0831.5,5.01,000.00,029.4,025.6,000.0,037.8,030.6,22.5,0000.0,0005.64,0003.23,0002.61
2023-08-13 10:43:00,SystemResetWarning,0831.4,5.00,000.00,029.3,025.9,000.0,037.8,030.6,22.7,0000.0,0005.81,0003.28,0002.67
2023-08-13 10:44:00,SystemResetWarning,0831.4,4.99,000.00,029.3,026.3,000.0,037.9,030.7,22.8,0000.0,0006.05,0003.30,0002.72
2023-08-13 10:45:00,SystemResetWarning,0831.5,5.00,000.00,029.3,026.7,000.0,037.9,030.8,22.9,0000.0,0006.23,0003.34,0002.77
2023-08-13 10:46:00,SystemResetWarning,0831.4,5.00,000.00,029.3,027.0,000.0,037.9,030.9,23.0,0000.0,0006.34,0003.37,0002.78
2023-08-13 10:47:00,SystemResetWarning,0831.5,5.00,000.00,029.3,027.3,000.0,037.9,030.9,23.0,0000.0,0006.25,0003.37,0002.78
2023-08-13 10:48:00,SystemResetWarning,0831.5,5.00,000.00,029.4,027.5,000.0,037.9,031.0,23.0,0000.0,0006.17,0003.37,0002.78
2023-08-13 10:49:00,SystemResetWarning,0831.6,5.00,000.00,029.4,027.7,000.0,037.9,031.0,23.0,0000.0,0005.98,0003.35,0002.77
2023-08-13 10:50:00,SystemResetWarning,0831.6,5.00,000.00,029.4,027.9,000.0,037.9,031.1,23.0,0000.0,0005.81,0003.32,0002.76
2023-08-13 10:51:00,SystemResetWarning,0831.6,5.00,000.00,029.4,028.0,000.0,037.9,031.1,23.1,0000.0,0005.54,0003.26,0002.73
2023-08-13 10:52:00,SystemResetWarning,0831.6,5.00,000.00,029.5,028.2,000.0,038.0,031.2,23.0,0000.0,0005.50,0003.27,0002.70
2023-08-13 10:53:00,SystemResetWarning,0831.6,5.00,000.00,029.5,028.3,000.0,038.0,031.2,23.1,0000.0,0005.55,0003.28,0002.68
2023-08-13 10:54:00,SystemResetWarning,0831.6,4.99,000.00,029.5,028.3,000.0,038.0,031.2,23.0,0000.0,0005.87,0003.26,0002.65
2023-08-13 10:55:00,SystemResetWarning,0831.7,5.00,000.00,029.6,028.4,000.0,038.0,031.3,22.9,0000.0,0006.15,0003.25,0002.61
2023-08-13 10:56:00,SystemResetWarning,0831.7,4.99,000.00,029.6,027.6,000.0,038.0,031.1,22.9,0000.0,0006.15,0003.24,0002.57
2023-08-13 10:57:00,SystemResetWarning,0831.7,5.00,000.00,029.5,025.8,000.0,037.8,030.8,23.1,0000.0,0006.50,0003.24,0002.57
2023-08-13 10:58:00,SystemResetWarning,0831.7,5.00,000.00,029.4,025.5,000.0,037.7,030.7,23.2,0000.0,0006.76,0003.26,0002.58
2023-08-13 10:59:00,SystemResetWarning,0831.7,5.02,000.00,029.3,025.7,000.0,037.8,030.6,23.4,0000.0,0006.72,0003.25,0002.56
